{"data":{"norad_id":68501,"intl_designator":"2026-067CP","name":"N1-ATLAS","alt_names":[],"object_type":"PAYLOAD","status":"ACTIVE","operator":null,"country":"US","launch_date":"2026-03-30","launch_site_code":"AFWTR","launch_vehicle":null,"mission":null,"orbit_class":"UNKNOWN","rcs_meters":null,"size_class":null,"mass_kg":null,"dimensions":null,"purposes":[],"wikipedia_slug":null,"has_3d_model":false,"image_url":null,"decayed_at":null,"tle_current":{"epoch":"2026-09-20T03:01:58.521792Z","epoch_age_seconds":98752,"freshness":"FRESH","line1":"1 68501U 26067CP  26263.12637178  .00001071  00000+0  11188-3 0  9995","line2":"2 68501  97.7740 219.9581 0004926  76.3713 283.8054 14.91752272 25871","mean_motion":14.91752272,"eccentricity":0.0004926,"inclination_deg":97.774,"raan_deg":219.9581,"arg_perigee_deg":76.3713,"mean_anomaly_deg":283.8054,"bstar":0.00011188,"rev_number":2587,"period_min":96.530773039775,"perigee_km":589.03795703717,"apogee_km":595.90540070759,"semimajor_km":6970.6086788724,"source":"CELESTRAK","updated_at":"2026-09-20T09:00:24.261644Z"}}}